Change the Weather History Date:

Tuesday, February 25, 2014

  Actual Average Record
Temperature  
Mean Temperature 18 °F -  
Max Temperature 24 °F 43 °F 71 °F (2009)
Min Temperature 12 °F 21 °F -5 °F (2003)
Degree Days  
Heating Degree Days 47    
Moisture  
Dew Point 7 °F    
Average Humidity 65    
Maximum Humidity 86    
Minimum Humidity 53    
Precipitation  
Precipitation 0.00 in - - ()
Sea Level Pressure  
Sea Level Pressure 30.35 in    
Wind  
Wind Speed 16 mph (North)    
Max Wind Speed 25 mph    
Max Gust Speed 32 mph    
Visibility 9 miles    
Events      
Averages and records for this station are not official NWS values.
T = Trace of Precipitation, MM = Missing Value Source: NWS Daily Summary

Daily Weather History Graph

Daily Weather History Graph

Search for Another Location

Airport or City:

Trip Planner

Search our weather history database for the weather conditions in past years. The results will help you decide how hot, cold, wet, or windy it might be!

Date:

Astronomy

Feb. 25, 2014 Rise Set
Actual Time 7:15 AM CST 6:25 PM CST
Civil Twilight 6:48 AM CST 6:52 PM CST
Nautical Twilight 6:17 AM CST 7:23 PM CST
Astronomical Twilight 5:46 AM CST 7:54 PM CST
Moon 4:09 AM CST (2/25) 2:34 PM CST (2/25)
Length of Visible Light 12h 04m
Length of Day
11h 10m
Waning Crescent, 18% of the Moon is Illuminated
Feb 25
Waning Crescent
Mar 1
New
Mar 8
First Quarter
Mar 16
Full
Mar 23
Last Quarter

Hourly Weather History & Observations

Time (CST) Temp. Windchill Dew Point Humidity Pressure Visibility Wind Dir Wind Speed Gust Speed Precip Events Conditions
12:15 AM 24.8 °F 13.4 °F 15.8 °F 69% 30.30 in 10.0 mi NNW 12.7 mph - N/A   Clear
12:35 AM 24.8 °F 11.1 °F 15.8 °F 69% 30.31 in 10.0 mi North 18.4 mph - N/A   Clear
12:55 AM 24.8 °F 9.0 °F 17.6 °F 74% 30.32 in 10.0 mi North 25.3 mph 32.2 mph N/A   Clear
1:15 AM 23.0 °F 8.0 °F 12.2 °F 63% 30.31 in 10.0 mi North 20.7 mph - N/A   Clear
1:35 AM 21.2 °F 4.5 °F 14.0 °F 74% 30.31 in 10.0 mi North 24.2 mph 28.8 mph N/A   Clear
1:55 AM 19.4 °F 2.1 °F 10.4 °F 68% 30.31 in 10.0 mi North 24.2 mph - N/A   Clear
2:15 AM 19.4 °F 2.1 °F 10.4 °F 68% 30.32 in 10.0 mi North 24.2 mph 28.8 mph N/A   Clear
2:35 AM 17.6 °F 1.3 °F 8.6 °F 68% 30.33 in 10.0 mi North 19.6 mph 27.6 mph N/A   Clear
2:55 AM 17.6 °F 1.7 °F 8.6 °F 68% 30.33 in 10.0 mi North 18.4 mph - N/A   Clear
3:15 AM 15.8 °F -0.6 °F 6.8 °F 68% 30.33 in 10.0 mi North 18.4 mph - N/A   Clear
3:35 AM 15.8 °F -1.5 °F 6.8 °F 68% 30.33 in 10.0 mi North 20.7 mph 25.3 mph N/A   Clear
3:55 AM 15.8 °F -1.1 °F 6.8 °F 68% 30.33 in 10.0 mi North 19.6 mph - N/A   Clear
4:15 AM 14.0 °F -2.0 °F 5.0 °F 67% 30.33 in 10.0 mi North 16.1 mph - N/A   Clear
4:35 AM 14.0 °F -2.5 °F 3.2 °F 62% 30.32 in 10.0 mi North 17.3 mph - N/A   Clear
4:55 AM 14.0 °F -2.5 °F 5.0 °F 67% 30.31 in 10.0 mi North 17.3 mph - N/A   Clear
5:15 AM 12.2 °F -4.3 °F 3.2 °F 67% 30.31 in 10.0 mi North 16.1 mph - N/A   Clear
5:35 AM 12.2 °F -3.7 °F 3.2 °F 67% 30.30 in 10.0 mi North 15.0 mph - N/A   Clear
5:55 AM 12.2 °F -4.3 °F 3.2 °F 67% 30.30 in 10.0 mi North 16.1 mph - N/A   Clear
6:15 AM 12.2 °F -4.3 °F 3.2 °F 67% 30.30 in 10.0 mi North 16.1 mph - N/A   Clear
6:35 AM 12.2 °F -3.7 °F 3.2 °F 67% 30.29 in 10.0 mi North 15.0 mph - N/A   Clear
6:55 AM 12.2 °F -3.1 °F 3.2 °F 67% 30.29 in 10.0 mi North 13.8 mph - N/A   Clear
7:15 AM 12.2 °F -3.7 °F 3.2 °F 67% 30.29 in 10.0 mi North 15.0 mph - N/A   Clear
7:35 AM 12.2 °F -3.1 °F 3.2 °F 67% 30.29 in 10.0 mi North 13.8 mph - N/A   Clear
7:55 AM 12.2 °F -1.8 °F 3.2 °F 67% 30.30 in 10.0 mi NNE 11.5 mph - N/A   Clear
8:15 AM 12.2 °F -1.8 °F 3.2 °F 67% 30.31 in 10.0 mi North 11.5 mph - N/A   Scattered Clouds
8:35 AM 12.2 °F -1.0 °F 3.2 °F 67% 30.33 in 10.0 mi NNE 10.4 mph - N/A   Mostly Cloudy
8:55 AM 12.2 °F -1.8 °F 3.2 °F 67% 30.34 in 10.0 mi NNE 11.5 mph - N/A   Overcast
9:15 AM 12.2 °F -1.8 °F 3.2 °F 67% 30.34 in 10.0 mi North 11.5 mph - N/A   Mostly Cloudy
9:35 AM 12.2 °F -1.0 °F 3.2 °F 67% 30.34 in 10.0 mi North 10.4 mph - N/A   Overcast
9:55 AM 14.0 °F 2.0 °F 5.0 °F 67% 30.35 in 10.0 mi North 9.2 mph - N/A   Overcast
10:15 AM 14.0 °F 0.5 °F 5.0 °F 67% 30.35 in 10.0 mi North 11.5 mph - N/A   Overcast
10:35 AM 15.8 °F 3.4 °F 5.0 °F 62% 30.35 in 10.0 mi NNE 10.4 mph - N/A   Overcast
10:55 AM 15.8 °F 3.4 °F 6.8 °F 68% 30.35 in 10.0 mi North 10.4 mph - N/A   Unknown
11:15 AM 15.8 °F 2.1 °F 6.8 °F 68% 30.35 in 10.0 mi North 12.7 mph - N/A   Overcast
11:35 AM 17.6 °F 4.3 °F 6.8 °F 63% 30.35 in 10.0 mi NE 12.7 mph - N/A   Overcast
11:55 AM 17.6 °F 4.3 °F 6.8 °F 63% 30.35 in 10.0 mi North 12.7 mph - N/A   Overcast
12:15 PM 17.6 °F 5.0 °F 8.6 °F 68% 30.35 in 10.0 mi North 11.5 mph - N/A   Overcast
12:35 PM 19.4 °F 6.6 °F 8.6 °F 63% 30.34 in 10.0 mi NNE 12.7 mph 18.4 mph N/A   Mostly Cloudy
12:55 PM 21.2 °F 8.3 °F 10.4 °F 63% 30.33 in 10.0 mi NNE 13.8 mph - N/A   Overcast
1:15 PM 21.2 °F 8.3 °F 10.4 °F 63% 30.32 in 10.0 mi NE 13.8 mph - N/A   Overcast
1:35 PM 21.2 °F 9.5 °F 8.6 °F 58% 30.31 in 10.0 mi NNE 11.5 mph - N/A   Overcast
1:55 PM 21.2 °F 8.9 °F 8.6 °F 58% 30.29 in 10.0 mi North 12.7 mph - N/A   Overcast
2:15 PM 21.2 °F 8.9 °F 8.6 °F 58% 30.29 in 10.0 mi NNE 12.7 mph - N/A   Overcast
2:35 PM 21.2 °F 7.8 °F 8.6 °F 58% 30.28 in 10.0 mi NE 15.0 mph - N/A   Overcast
2:55 PM 21.2 °F 7.8 °F 8.6 °F 58% 30.28 in 10.0 mi NE 15.0 mph - N/A   Overcast
3:15 PM 23.0 °F 9.2 °F 8.6 °F 54% 30.27 in 10.0 mi NE 17.3 mph 21.9 mph N/A   Overcast
3:35 PM 21.2 °F 6.8 °F 8.6 °F 58% 30.28 in 10.0 mi NNE 17.3 mph - N/A   Overcast
3:55 PM 21.2 °F 6.4 °F 6.8 °F 54% 30.29 in 10.0 mi NNE 18.4 mph - N/A   Overcast
4:15 PM 21.2 °F 6.4 °F 6.8 °F 54% 30.30 in 10.0 mi NNE 18.4 mph - N/A   Overcast
4:35 PM 21.2 °F 6.8 °F 6.8 °F 54% 30.31 in 10.0 mi NNE 17.3 mph - N/A   Overcast
4:55 PM 19.4 °F 3.2 °F 5.0 °F 54% 30.31 in 10.0 mi NNE 20.7 mph - N/A   Overcast
5:15 PM 19.4 °F 4.1 °F 5.0 °F 54% 30.32 in 10.0 mi North 18.4 mph - N/A   Overcast
5:35 PM 17.6 °F 1.3 °F 3.2 °F 53% 30.34 in 10.0 mi North 19.6 mph - N/A   Overcast
5:55 PM 17.6 °F 1.7 °F 3.2 °F 53% 30.36 in 10.0 mi North 18.4 mph - N/A   Overcast
6:15 PM 17.6 °F 1.3 °F 3.2 °F 53% 30.36 in 10.0 mi North 19.6 mph - N/A   Overcast
6:35 PM 17.6 °F 1.7 °F 3.2 °F 53% 30.37 in 10.0 mi North 18.4 mph - N/A   Overcast
6:55 PM 17.6 °F 2.7 °F 5.0 °F 58% 30.38 in 10.0 mi North 16.1 mph 20.7 mph N/A   Overcast
7:15 PM 17.6 °F 1.7 °F 5.0 °F 58% 30.40 in 10.0 mi North 18.4 mph - N/A   Overcast
7:35 PM 17.6 °F 1.3 °F 6.8 °F 63% 30.41 in 10.0 mi North 19.6 mph - N/A   Overcast
7:55 PM 17.6 °F 2.7 °F 6.8 °F 63% 30.41 in 10.0 mi North 16.1 mph - N/A   Overcast
8:15 PM 17.6 °F 2.7 °F 6.8 °F 63% 30.41 in 10.0 mi North 16.1 mph - N/A   Overcast
8:35 PM 17.6 °F 3.7 °F 8.6 °F 68% 30.43 in 10.0 mi North 13.8 mph - N/A   Overcast
8:55 PM 17.6 °F 2.7 °F 8.6 °F 68% 30.45 in 10.0 mi North 16.1 mph - N/A   Overcast
9:15 PM 17.6 °F 3.7 °F 8.6 °F 68% 30.46 in 10.0 mi North 13.8 mph - N/A   Overcast
9:35 PM 17.6 °F 3.2 °F 8.6 °F 68% 30.48 in 3.0 mi North 15.0 mph - N/A   Overcast
9:55 PM 15.8 °F 2.1 °F 10.4 °F 79% 30.49 in 2.5 mi NNW 12.7 mph - N/A   Overcast
10:15 PM 15.8 °F 3.4 °F 10.4 °F 79% 30.48 in 2.5 mi NNW 10.4 mph - N/A   Overcast
10:35 PM 15.8 °F 3.4 °F 10.4 °F 79% 30.48 in 2.5 mi NNW 10.4 mph - N/A   Overcast
10:55 PM 15.8 °F 4.2 °F 10.4 °F 79% 30.48 in 2.5 mi NW 9.2 mph - N/A   Unknown
11:15 PM 15.8 °F 4.2 °F 12.2 °F 86% 30.48 in 2.5 mi NW 9.2 mph - N/A   Unknown
11:35 PM 15.8 °F 4.2 °F 10.4 °F 79% 30.47 in 3.0 mi NNW 9.2 mph - N/A   Unknown
11:55 PM 15.8 °F 4.2 °F 10.4 °F 79% 30.47 in 2.5 mi NW 9.2 mph - N/A   Unknown